Location: Newark
(25.0000°N, 73.5000°E)
Time: 03:29:52
(UTC+00:00)

Transit 2A Rocket - Pass Details

Date: 02 August 2021
Orbit: 586 x 917 km, 66.7° (Epoch: 24 September)

Event Time Altitude Azimuth Distance (km) Brightness Sun altitude
Rises 18:33:18 0° 334° (NNW) 3,391 9.0 -46.4°
Reaches altitude 10° 18:35:42 10° 333° (NNW) 2,494 8.2 -46.5°
Enters shadow 18:35:58 11° 333° (NNW) 2,395 8.0 -46.5°
